Find OneWeb SL0652

NORAD ID: 55814 Int'l Des: 2023-029 Owner: ONEWEBN Country: UK Constellation: oneweb operational
LEOCIRCULARPOLARONEWEB_TYPE

現在のビュー

3D地球を読み込み中...

About OneWeb SL0652

OneWeb SL0652 (NORAD 55814) is a oneweb constellation satellite launched Mar 9, 2023 by ONEWEBN of UK. It operates in LEO, CIRCULAR, POLAR, ONEWEB_TYPE orbit with a mass of 148.00 kg.

OneWeb SL0652について

説明を読み込み中...

次回通過

Passes for default location (London). Set your location on the main map for personalized predictions.

高度履歴

Loading altitude history...

軌道要素

1 55814U 23029U 26170.30075486 -.00000257 00000-0 -72707-3 0 9990
2 55814 87.8964 289.2893 0002076 98.4926 261.6439 13.14502310159647
Epoch: Jun 19, 2026 • Age: 5 hours

現在のステータス

高度 1230.0 km
速度 7.24 km/s
衛星直下点 -59.25°S, 23.77°E
打ち上げ日 Mar 9, 2023
運用期間 3.2 years
タイプ internet

技術仕様

分類 Payload
質量 148.00 kg
乾燥質量 140.00 kg
総質量 148.00 kg
長さ 1.30 m
直径 1.00 m
スパン 5.00 m
形状 Trapezoid+2 pan
製造者 ONEWUS
バスタイプ ARROW
フェーズステータス In Orbit
所有者/国 ONEWEBN/UK

Most Searched